When you browse on this site, cookies collect data to enhance your experience and personalize the content and advertising you see.
Visit our Privacy Policy to learn more. By continuing to use the site, you agree to this use of cookies and data.
  • In Netherlands
  • List of Countries
  • For 7 days
  • Water Temperature
  • Satellite Maps
  • Weather Map
  • Weather Widgets
  • user-avatar
    Login

    Hourly Weather Cordoba

    Today, 18 January, Friday

    Time Temperature Precipitation Wind Pressure Humidity
    00:00 +7°C° 0 mm 2 mps 755 mmHg 78%
    01:00 +7°C° 0 mm 2 mps 755 mmHg 78%
    02:00 +6°C° 0 mm 2 mps 755 mmHg 79%
    03:00 +6°C° 0 mm 2 mps 755 mmHg 79%
    04:00 +6°C° 0 mm 2 mps 755 mmHg 79%
    05:00 +5°C° 0 mm 2 mps 755 mmHg 79%
    06:00 +6°C° 0 mm 1 mps 755 mmHg 78%
    07:00 +6°C° 0 mm 1 mps 755 mmHg 74%
    08:00 +7°C° 0 mm 1 mps 755 mmHg 70%
    09:00 +8°C° 0 mm 1 mps 755 mmHg 67%
    10:00 +10°C° 0 mm 1 mps 755 mmHg 60%
    11:00 +12°C° 0 mm 1 mps 755 mmHg 53%
    12:00 +14°C° 0 mm 1 mps 755 mmHg 46%
    13:00 +15°C° 0 mm 1 mps 755 mmHg 44%
    14:00 +15°C° 0 mm 1 mps 754 mmHg 42%
    15:00 +15°C° 0 mm 1 mps 754 mmHg 40%
    16:00 +14°C° 0 mm 1 mps 754 mmHg 44%
    17:00 +13°C° 0 mm 1 mps 754 mmHg 49%
    18:00 +11°C° 0 mm 1 mps 754 mmHg 54%
    19:00 +11°C° 0 mm 1 mps 754 mmHg 58%
    20:00 +10°C° 0 mm 1 mps 755 mmHg 61%
    21:00 +10°C° 0 mm 1 mps 755 mmHg 64%
    22:00 +9°C° 0 mm 1 mps 755 mmHg 67%
    23:00 +8°C° 0 mm 1 mps 755 mmHg 71%

    Tomorrow, 19 January, Saturday

    Time Temperature Precipitation Wind Pressure Humidity
    00:00 +8°C° 0 mm 1 mps 755 mmHg 74%
    01:00 +7°C° 0 mm 1 mps 755 mmHg 75%
    02:00 +7°C° 0 mm 1 mps 755 mmHg 77%
    03:00 +6°C° 0 mm 1 mps 755 mmHg 78%
    04:00 +5°C° 0 mm 0 mps 755 mmHg 80%
    05:00 +5°C° 0 mm 0 mps 755 mmHg 81%
    06:00 +5°C° 0 mm 0 mps 755 mmHg 83%
    07:00 +5°C° 0 mm 0 mps 755 mmHg 80%
    08:00 +6°C° 0 mm 0 mps 755 mmHg 76%
    09:00 +7°C° 0 mm 0 mps 755 mmHg 73%
    10:00 +9°C° 0.1 mm 1 mps 755 mmHg 71%
    11:00 +10°C° 0.1 mm 1 mps 755 mmHg 69%
    12:00 +11°C° 0.1 mm 1 mps 754 mmHg 67%
    13:00 +11°C° 0.6 mm 1 mps 754 mmHg 74%
    14:00 +10°C° 0.6 mm 1 mps 753 mmHg 80%
    15:00 +10°C° 0.6 mm 1 mps 752 mmHg 86%
    16:00 +10°C° 0.3 mm 1 mps 752 mmHg 89%
    17:00 +10°C° 0.3 mm 1 mps 752 mmHg 92%
    18:00 +10°C° 0.3 mm 1 mps 752 mmHg 95%
    19:00 +10°C° 1 mm 1 mps 752 mmHg 96%
    20:00 +10°C° 1 mm 2 mps 752 mmHg 97%
    21:00 +10°C° 1 mm 2 mps 751 mmHg 98%
    22:00 +10°C° 0.4 mm 2 mps 751 mmHg 98%
    23:00 +12°C° 0.4 mm 2 mps 751 mmHg 98%

    Day after tomorrow, 20 January, Sunday

    Time Temperature Precipitation Wind Pressure Humidity
    00:00 +12°C° 0.4 mm 2 mps 750 mmHg 98%
    01:00 +12°C° 0 mm 2 mps 750 mmHg 97%
    02:00 +10°C° 0 mm 2 mps 750 mmHg 97%
    03:00 +10°C° 0 mm 2 mps 750 mmHg 97%
    04:00 +10°C° 0.1 mm 2 mps 750 mmHg 97%
    05:00 +10°C° 0.1 mm 2 mps 749 mmHg 97%
    06:00 +10°C° 0.1 mm 2 mps 749 mmHg 97%
    07:00 +10°C° 0.1 mm 2 mps 750 mmHg 95%
    08:00 +10°C° 0.1 mm 2 mps 750 mmHg 94%
    09:00 +12°C° 0.1 mm 2 mps 750 mmHg 92%
    10:00 +12°C° 0 mm 3 mps 751 mmHg 85%
    11:00 +13°C° 0 mm 3 mps 751 mmHg 78%
    12:00 +14°C° 0 mm 3 mps 751 mmHg 71%
    13:00 +14°C° 0 mm 3 mps 751 mmHg 71%
    14:00 +14°C° 0 mm 3 mps 751 mmHg 70%
    15:00 +14°C° 0 mm 3 mps 751 mmHg 69%
    16:00 +14°C° 0.1 mm 2 mps 751 mmHg 72%
    17:00 +13°C° 0.1 mm 2 mps 752 mmHg 74%
    18:00 +12°C° 0.1 mm 1 mps 752 mmHg 77%
    19:00 +12°C° 0.1 mm 1 mps 753 mmHg 78%
    20:00 +10°C° 0.1 mm 2 mps 754 mmHg 79%
    21:00 +10°C° 0.1 mm 2 mps 754 mmHg 80%
    22:00 +9°C° 0 mm 2 mps 755 mmHg 79%
    23:00 +8°C° 0 mm 2 mps 755 mmHg 78%

    21 January, Monday

    Time Temperature Precipitation Wind Pressure Humidity
    00:00 +8°C° 0 mm 2 mps 756 mmHg 78%
    01:00 +7°C° 0 mm 2 mps 756 mmHg 77%
    02:00 +7°C° 0 mm 2 mps 756 mmHg 77%
    03:00 +6°C° 0 mm 2 mps 756 mmHg 76%
    04:00 +6°C° 0 mm 2 mps 756 mmHg 76%
    05:00 +6°C° 0 mm 2 mps 756 mmHg 77%
    06:00 +5°C° 0 mm 2 mps 757 mmHg 77%
    07:00 +6°C° 0 mm 2 mps 757 mmHg 75%
    08:00 +7°C° 0 mm 2 mps 757 mmHg 74%
    09:00 +7°C° 0 mm 2 mps 758 mmHg 72%
    10:00 +9°C° 0 mm 2 mps 758 mmHg 64%
    11:00 +11°C° 0 mm 3 mps 758 mmHg 55%
    12:00 +13°C° 0 mm 4 mps 758 mmHg 47%
    13:00 +14°C° 0 mm 3 mps 757 mmHg 46%
    14:00 +14°C° 0 mm 3 mps 757 mmHg 45%
    15:00 +14°C° 0 mm 3 mps 757 mmHg 43%
    16:00 +13°C° 0 mm 3 mps 757 mmHg 50%
    17:00 +12°C° 0 mm 2 mps 757 mmHg 56%
    18:00 +10°C° 0 mm 2 mps 758 mmHg 62%
    19:00 +9°C° 0 mm 2 mps 758 mmHg 63%
    20:00 +8°C° 0 mm 2 mps 759 mmHg 65%
    21:00 +7°C° 0 mm 2 mps 760 mmHg 66%
    22:00 +7°C° 0 mm 2 mps 760 mmHg 66%
    23:00 +6°C° 0 mm 2 mps 760 mmHg 67%

    22 January, Tuesday

    Time Temperature Precipitation Wind Pressure Humidity
    00:00 +6°C° 0 mm 2 mps 760 mmHg 67%
    01:00 +5°C° 0 mm 2 mps 760 mmHg 68%
    02:00 +5°C° 0 mm 2 mps 760 mmHg 69%
    03:00 +4°C° 0 mm 2 mps 760 mmHg 70%
    04:00 +4°C° 0 mm 2 mps 760 mmHg 71%
    05:00 +4°C° 0 mm 2 mps 760 mmHg 72%
    06:00 +3°C° 0 mm 2 mps 760 mmHg 72%
    07:00 +4°C° 0 mm 2 mps 760 mmHg 70%
    08:00 +5°C° 0 mm 2 mps 761 mmHg 67%
    09:00 +5°C° 0 mm 2 mps 761 mmHg 64%
    10:00 +7°C° 0 mm 2 mps 760 mmHg 57%
    11:00 +9°C° 0 mm 2 mps 760 mmHg 49%
    12:00 +13°C° 0 mm 1 mps 760 mmHg 41%
    13:00 +13°C° 0 mm 1 mps 759 mmHg 40%
    14:00 +14°C° 0 mm 1 mps 758 mmHg 39%
    15:00 +14°C° 0 mm 1 mps 757 mmHg 38%
    16:00 +13°C° 0 mm 1 mps 757 mmHg 44%
    17:00 +11°C° 0 mm 1 mps 757 mmHg 51%
    18:00 +9°C° 0 mm 1 mps 758 mmHg 58%
    19:00 +9°C° 0 mm 1 mps 758 mmHg 61%
    20:00 +8°C° 0 mm 1 mps 758 mmHg 64%
    21:00 +7°C° 0 mm 1 mps 758 mmHg 68%
    22:00 +7°C° 0 mm 1 mps 758 mmHg 69%
    23:00 +7°C° 0 mm 1 mps 757 mmHg 71%

    23 January, Wednesday

    Time Temperature Precipitation Wind Pressure Humidity
    00:00 +6°C° 0 mm 1 mps 757 mmHg 73%
    01:00 +6°C° 0 mm 1 mps 757 mmHg 74%
    02:00 +6°C° 0 mm 1 mps 757 mmHg 75%
    03:00 +6°C° 0 mm 1 mps 756 mmHg 76%
    04:00 +6°C° 0 mm 1 mps 756 mmHg 76%
    05:00 +7°C° 0 mm 1 mps 756 mmHg 76%
    06:00 +8°C° 0 mm 1 mps 755 mmHg 76%
    07:00 +8°C° 0 mm 1 mps 756 mmHg 77%
    08:00 +8°C° 0 mm 1 mps 756 mmHg 78%
    09:00 +7°C° 0 mm 2 mps 756 mmHg 79%
    10:00 +9°C° 0 mm 2 mps 756 mmHg 73%
    11:00 +12°C° 0 mm 2 mps 755 mmHg 67%
    12:00 +12°C° 0 mm 3 mps 755 mmHg 61%
    13:00 +13°C° 0 mm 3 mps 754 mmHg 58%
    14:00 +14°C° 0 mm 3 mps 754 mmHg 54%
    15:00 +15°C° 0 mm 4 mps 753 mmHg 51%
    16:00 +13°C° 0 mm 4 mps 753 mmHg 57%
    17:00 +12°C° 0 mm 3 mps 753 mmHg 63%
    18:00 +11°C° 0 mm 3 mps 753 mmHg 69%
    19:00 +10°C° 0 mm 3 mps 753 mmHg 74%
    20:00 +9°C° 0 mm 3 mps 753 mmHg 78%
    21:00 +8°C° 0 mm 3 mps 753 mmHg 83%
    22:00 +8°C° 0 mm 3 mps 753 mmHg 85%
    23:00 +8°C° 0 mm 3 mps 752 mmHg 87%
    Show more